Regional Weather Roundup
Issued by NWS Newport/Morehead, NC

Current Version | Previous Version | Graphics & Text | Print | Product List | Glossary Off
Versions: 1 2 3 4 5 6 7 8 9 10 11 12 13 14 15 16 17 18 19 20 21 22 23 24 25 26 27 28 29 30 31 32 33 34 35 36 37 38 39 40 41 42 43 44 45 46 47 48 49 50

000
ASUS42 KMHX 171022
RWRMHX
WEATHER ROUNDUP FOR EASTERN NORTH CAROLINA
NATIONAL WEATHER SERVICE NEWPORT/MOREHEAD CITY NC
500 AM EST WED DEC 17 2014

NOTE: "FAIR" INDICATES FEW OR NO CLOUDS BELOW 12,000 FEET
WITH NO SIGNIFICANT WEATHER AND/OR OBSTRUCTIONS TO VISIBILITY

NCZ015>017-031-032-045>047-102-103-171100-
NORTH COAST

CITY           SKY/WX    TMP DP  RH WIND       PRES   REMARKS
EDENTON          N/A     44  42  94 W5        29.99R
ELIZABETH CITY FOG       47  44  90 W5        29.97R VSB 1/4
KITTY HAWK     CLOUDY    47  47  98 W5        29.95R FOG
MANTEO         CLOUDY    47  46  97 N6        29.97R

$$

NCZ045>047-081-094-103-104-171100-
CENTRAL COAST

CITY           SKY/WX    TMP DP  RH WIND       PRES   REMARKS
FRISCO         CLEAR     49  47  93 NW10G16   29.97R
SWANQUARTER      N/A     46 N/A N/A NW8       29.94S

$$

NCZ095-097-098-100-101-171100-
SOUTHERN COAST

CITY           SKY/WX    TMP DP  RH WIND       PRES   REMARKS
BEAUFORT       CLEAR     50  45  83 NW9       30.01R
CEDAR ISLAND     N/A     50 N/A N/A W10       30.03R
JACKSONVILLE   CLEAR     46  43  89 W8        30.03R
PINEY ISLAND   SUNNY     51  44  77 NW10      29.99R
WILMINGTON     CLEAR     46  44  93 NW5       30.03R


$$

NCZ011>013-027>030-043-044-078>080-089-090>093-098-171100-
COASTAL PLAIN

CITY           SKY/WX    TMP DP  RH WIND       PRES   REMARKS
AHOSKIE        CLEAR     40  39  97 CALM      29.99R FOG
CLINTON        CLEAR     42  42 100 CALM      30.05R
ELIZABETHTOWN  CLEAR     46  43  91 NW6       30.05R
GOLDSBORO      CLEAR     42  42  99 CALM      30.01R
GREENVILLE     CLEAR     45  43  93 W3        30.02S
HAVELOCK       CLEAR     49  43  80 W7        30.02R
KENANSVILLE    CLEAR     42  41  95 CALM      30.05R
KINSTON        CLEAR     45  43  94 W5        30.03R
NEW BERN       CLEAR     49  43  80 W6        30.02R
RICHLANDS      CLEAR     45  39  81 W5        30.04R
ROCKY MOUNT    CLEAR     44  39  82 W5        30.01R
WASHINGTON     CLEAR     43  42  97 CALM      30.00S
WHITEVILLE     CLEAR     43  42  95 CALM      30.06R

$$

AMZ130-135-150-152-154-156-158-170-250-252-270-ANZ085-086-088-633-658-670-171100-
MARINE OBSERVATIONS

STATION/POSITION TIME  TEMP    WIND        PRES    WAVE   SWELL
                       AIR SEA DIR/SP/G            HT/PER HT/PER
                 (UTC) (F)     (DEG/KT/KT) (MB)    (FT/S) (FT/S)
CHESAPEAKE LIGHT 1000   47     320/ 10/ 11 1014.0
64 E VA BEACH    1000   51 54  320/ 17/ 21 1012.7    4/ 7   2/10
DUCK             1000   47 48  300/  9/ 11 1013.5
2 E DUCK         1000      48                N/A     2/11
10 NE DUCK       1000      51                N/A     2/ 7
OREGON INLET     1000   48 51  300/ 10/ 12 1014.5
13E OREGON INLT  1000      51                N/A     4/ 8   2/11
HATTERAS CG      1000   51 54  300/ 13/ 17 1015.1
DIAMOND BUOY     1000   56                 1013.9    7/ 8
17 S OCRACOKE    NOT AVBL
CAPE LOOKOUT     1000   53     310/ 10/ 15 1015.8
BEAUFORT LAB     1000   51 53  330/  6/ 10 1015.0
30 SE NEW RIVER  1000   56 61  320/ 16/ 19 1016.5    5/ 7   3/ 7
5 SE WRIGHTSVLE  1000   50 55  310/ 12/ 14 1016.7
225 S CAPE HAT   0929   70 73  310/ 23/ 27 1014.9    8/ 7   2/11
41 SE CHARLESTON 1000   58 73  320/ 16/ 19 1018.0    5/ 5   2/10

$$



USA.gov is the U.S. government's official web portal to all federal, state and local government web resources and services.